CW1631 Weather Reports


Display with metric or nautical units.
time (UTC)temp
F
wind
direction
speed
MPH
gust
MPH
rain 1hr
in
rain 24hr
in
rain mn
in
humidity
%
barometer
mb
20260903044126 68 210 15.0 18.0 0.12 0.11 0.11 96 1014.9
20260903043622 68 213 14.0 15.0 0.17 0.10 0.10 97 1015.1
20260903043121 68 210 11.0 13.0 0.24 0.09 0.09 97 1015.4
20260903042620 68 215 9.0 9.0 0.26 0.07 0.07 97 1015.5
20260903042116 68 237 9.0 10.0 0.19 0.05 0.05 97 1015.9
20260903041613 68 206 11.0 14.0 0.05 0.03 0.03 97 1016.2
20260903041108 68 213 8.0 9.0 0.12 0.03 0.03 98 1016.6
20260903040607 68 226 7.0 9.0 0.19 0.02 0.02 98 1017.1
20260903040104 67 239 3.0 3.0 0.12 1.51 1.51 98 1017.6
20260903035558 67 276 7.0 8.0 0.12 1.50 1.50 97 1017.5
20260903035054 67 314 3.0 3.0 0.12 1.49 1.49 97 1015.9
20260903034549 67 234 4.0 5.0 0.05 1.48 1.48 98 1015.4
20260903034044 67 206 4.0 5.0 0.07 1.47 1.47 98 1015.1
20260903033539 66 244 2.0 2.0 0.12 1.47 1.47 98 1015.2
20260903033034 66 235 1.0 2.0 0.12 1.46 1.46 97 1015.2
20260903032529 66 304 0.0 1.0 0.07 1.45 1.45 97 1015.3
20260903032025 66 273 1.0 1.0 0.12 1.45 1.45 97 1015.4
20260903031524 65 235 1.0 1.0 0.12 1.44 1.44 97 1015.6
20260903031020 65 248 0.0 1.0 0.19 1.43 1.43 97 1015.9
20260903030515 66 296 1.0 1.0 0.19 1.42 1.42 97 1016.2
20260903030011 65 225 1.0 1.0 0.19 1.40 1.40 97 1016.3
20260903025506 66 280 1.0 1.0 0.17 1.39 1.39 97 1016.9
20260903025002 66 253 1.0 1.0 0.19 1.38 1.38 97 1017.0
20260903024501 66 222 3.0 5.0 0.19 1.36 1.36 96 1017.1
20260903023955 66 281 1.0 2.0 0.24 1.35 1.35 97 1017.1
20260903023452 65 262 1.0 1.0 0.31 1.33 1.33 97 1017.5
20260903022947 65 194 6.0 7.0 0.19 1.31 1.31 97 1016.6
20260903022446 65 191 8.0 9.0 0.19 1.29 1.29 97 1016.7
20260903021944 65 193 7.0 7.0 0.24 1.28 1.28 97 1016.6
20260903021440 65 133 5.0 6.0 0.28 1.26 1.26 97 1017.2
20260903020934 65 139 5.0 5.0 0.83 1.24 1.24 96 1017.6
20260903020430 65 236 1.0 1.0 2.46 1.21 1.21 96 1018.7
20260903015925 66 316 3.0 3.0 2.58 1.12 1.12 95 1018.8
20260903015420 68 265 10.0 17.0 0.90 0.84 0.84 93 1020.2
20260903014915 68 279 6.0 7.0 0.00 0.69 0.69 94 1018.1
20260903014409 68 339 2.0 2.0 0.07 0.69 0.69 93 1017.0
20260903013904 69 298 2.0 2.0 0.07 0.69 0.69 92 1016.6
20260903013404 69 332 2.0 2.0 0.00 0.68 0.68 92 1016.3
20260903012903 69 152 5.0 7.0 0.00 0.68 0.68 93 1016.5
20260903012403 69 145 5.0 7.0 0.00 0.68 0.68 93 1016.6
20260903011901 69 178 3.0 3.0 0.00 0.68 0.68 93 1016.8
20260903011356 69 277 0.0 1.0 0.00 0.68 0.68 92 1017.2
20260903010852 69 272 0.0 1.0 0.00 0.68 0.68 92 1017.0
20260903010347 69 219 1.0 1.0 0.00 0.68 0.68 92 1016.7
20260903005845 69 277 1.0 1.0 0.00 0.68 0.68 92 1016.3
20260903005340 69 70 4.0 5.0 0.00 0.68 0.68 91 1015.6
20260903004837 69 68 2.0 2.0 0.00 0.68 0.68 91 1015.8
20260903004332 69 139 5.0 6.0 0.00 0.68 0.68 91 1016.0
20260903003827 70 187 8.0 9.0 0.00 0.68 0.68 91 1016.0
20260903003322 69 167 7.0 9.0 0.00 0.68 0.68 91 1016.1
20260903002821 69 200 6.0 7.0 0.00 0.68 0.68 91 1016.3
20260903002321 69 194 5.0 5.0 0.00 0.68 0.68 91 1016.2
20260903001816 69 219 1.0 2.0 0.00 0.68 0.68 91 1016.5
20260903001312 69 227 0.0 1.0 0.00 0.68 0.68 91 1015.9
20260903000812 69 262 2.0 3.0 0.00 0.68 0.68 91 1016.0
20260903000307 69 145 6.0 7.0 0.00 0.68 0.68 91 1016.3
20260902235804 69 185 5.0 5.0 0.00 0.68 0.68 91 1016.0
20260902235300 69 215 6.0 7.0 0.00 0.68 0.68 91 1016.0
20260902234754 69 188 5.0 7.0 0.00 0.68 0.68 91 1015.6
20260902234253 69 198 10.0 11.0 0.00 0.68 0.68 91 1016.0
20260902233747 69 155 5.0 6.0 0.00 0.68 0.68 91 1015.9
20260902233242 70 142 6.0 6.0 0.00 0.68 0.68 91 1015.9
20260902232740 70 188 4.0 6.0 0.00 0.68 0.68 91 1016.2
20260902232235 70 195 5.0 6.0 0.00 0.68 0.68 91 1016.1
20260902231734 70 135 9.0 10.0 0.00 0.68 0.68 91 1016.0
20260902231230 70 171 4.0 6.0 0.00 0.68 0.68 91 1016.2
20260902230724 70 178 8.0 9.0 0.00 0.68 0.68 91 1015.9
20260902230223 70 170 7.0 8.0 0.00 0.68 0.68 91 1015.9
20260902225719 70 164 10.0 11.0 0.00 0.68 0.68 90 1015.9
20260902225219 70 145 6.0 8.0 0.00 0.68 0.68 90 1015.8
20260902224717 70 152 5.0 6.0 0.00 0.68 0.68 91 1015.8
20260902224212 70 119 9.0 10.0 0.00 0.68 0.68 91 1015.9
20260902223708 70 187 7.0 8.0 0.00 0.68 0.68 91 1016.0
20260902223208 70 156 8.0 8.0 0.00 0.68 0.68 91 1016.1
20260902222707 70 156 4.0 5.0 0.00 0.68 0.68 91 1016.3
20260902222206 70 170 5.0 6.0 0.00 0.68 0.68 91 1016.5
20260902221701 70 126 7.0 7.0 0.00 0.68 0.68 91 1016.6
20260902221155 71 127 5.0 6.0 0.00 0.68 0.68 91 1016.6
20260902220651 71 169 6.0 7.0 0.00 0.68 0.68 91 1016.5
20260902220145 71 148 7.0 9.0 0.00 0.68 0.68 90 1016.8
20260902215641 71 174 5.0 6.0 0.00 0.68 0.68 90 1016.8
20260902215136 71 163 9.0 11.0 0.00 0.68 0.68 90 1016.8
20260902214631 71 167 6.0 7.0 0.00 0.68 0.68 90 1016.8
20260902214130 71 168 4.0 5.0 0.00 0.68 0.68 90 1016.8
20260902213626 71 122 3.0 3.0 0.00 0.68 0.68 90 1016.8
20260902213125 72 157 10.0 11.0 0.00 0.68 0.68 89 1016.6
20260902212621 72 236 2.0 2.0 0.00 0.68 0.68 90 1016.5
20260902212117 72 199 4.0 5.0 0.00 0.68 0.68 89 1017.1
20260902211613 72 205 3.0 5.0 0.00 0.68 0.68 89 1016.7
20260902211108 72 194 5.0 6.0 0.00 0.68 0.68 89 1016.7
20260902210607 72 134 4.0 5.0 0.00 0.68 0.68 89 1016.8
20260902205601 72 182 4.0 5.0 0.00 0.68 0.68 88 1016.8
20260902205056 73 197 5.0 7.0 0.00 0.68 0.68 89 1016.6
20260902204550 72 225 2.0 2.0 0.00 0.68 0.68 89 1016.7
20260902204045 72 243 2.0 2.0 0.00 0.68 0.68 89 1016.7
20260902203541 72 236 2.0 3.0 0.00 0.68 0.68 89 1016.7
20260902203040 72 130 1.0 2.0 0.00 0.68 0.68 90 1016.5
20260902202536 72 195 7.0 9.0 0.00 0.68 0.68 89 1016.6
20260902202032 72 210 4.0 5.0 0.00 0.68 0.68 90 1016.8
20260902201528 72 179 7.0 8.0 0.00 0.68 0.68 89 1017.0
20260902201027 72 186 5.0 6.0 0.00 0.68 0.68 89 1017.0
20260902200522 72 214 5.0 7.0 0.00 0.68 0.68 88 1017.1
20260902200018 72 199 6.0 8.0 0.00 0.68 0.68 88 1017.0
20260902195514 73 191 9.0 10.0 0.00 0.68 0.68 88 1017.1
20260902195012 73 211 6.0 7.0 0.00 0.68 0.68 88 1017.0
20260902194507 73 209 10.0 10.0 0.00 0.68 0.68 87 1017.1
20260902194002 73 162 6.0 7.0 0.00 0.68 0.68 87 1017.4
20260902193458 72 213 3.0 3.0 0.00 0.68 0.68 88 1017.5
20260902192956 72 223 4.0 5.0 0.00 0.68 0.68 88 1017.5
20260902192456 72 195 3.0 3.0 0.00 0.68 0.68 88 1017.6
20260902191954 72 256 5.0 6.0 0.00 0.68 0.68 89 1017.6
20260902191450 71 250 1.0 1.0 0.00 0.68 0.68 88 1017.6
20260902190945 72 231 2.0 3.0 0.00 0.68 0.68 88 1017.4
20260902190440 72 194 7.0 9.0 0.00 0.68 0.68 88 1017.6
20260902185936 72 223 3.0 3.0 0.00 0.68 0.68 88 1017.5
20260902185432 72 63 3.0 5.0 0.00 0.68 0.68 87 1017.5
20260902184927 72 165 1.0 1.0 0.00 0.68 0.68 88 1017.3
20260902184422 72 277 0.0 0.0 0.00 0.68 0.68 88 1017.3
20260902183918 71 228 3.0 5.0 0.00 0.68 0.68 89 1017.5
20260902183414 71 184 7.0 8.0 0.00 0.68 0.68 88 1017.2
20260902182909 71 149 5.0 6.0 0.00 0.68 0.68 89 1017.7
20260902182406 71 180 4.0 5.0 0.00 0.68 0.68 89 1017.8
20260902181902 71 153 6.0 7.0 0.00 0.68 0.68 89 1017.7
20260902181357 71 160 9.0 13.0 0.00 0.68 0.68 88 1018.0
20260902180857 72 156 4.0 6.0 0.00 0.68 0.68 88 1017.9
20260902180352 72 202 7.0 9.0 0.00 0.68 0.68 87 1018.0
20260902175848 72 185 8.0 10.0 0.00 0.68 0.68 87 1018.0
20260902175343 72 186 7.0 8.0 0.00 0.68 0.68 88 1018.2
20260902174838 72 208 4.0 6.0 0.00 0.68 0.68 88 1018.2
20260902174335 73 213 2.0 3.0 0.00 0.68 0.68 88 1018.4
20260902173825 71 180 3.0 3.0 0.00 0.68 0.68 88 1018.1
20260902173324 71 192 5.0 6.0 0.00 0.68 0.68 88 1018.5
20260902172818 71 169 3.0 3.0 0.00 0.68 0.68 88 1018.6
20260902172313 72 233 3.0 3.0 0.00 0.68 0.68 88 1018.5
20260902171809 72 237 2.0 2.0 0.00 0.68 0.68 89 1018.3
20260902171303 71 274 1.0 1.0 0.00 0.68 0.68 91 1018.6
20260902170800 71 266 0.0 1.0 0.00 0.68 0.68 90 1018.7
20260902170255 70 173 2.0 2.0 0.00 0.68 0.68 91 1018.8
20260902165750 70 174 5.0 7.0 0.00 0.68 0.68 91 1018.8
20260902165250 70 137 7.0 8.0 0.00 0.68 0.68 90 1018.7
20260902164744 70 228 5.0 7.0 0.00 0.68 0.68 92 1018.7
20260902164238 69 106 8.0 9.0 0.00 0.68 0.68 91 1019.0
20260902163733 69 92 3.0 5.0 0.00 0.68 0.68 92 1018.8
20260902163227 69 72 3.0 3.0 0.00 0.68 0.68 93 1019.0
20260902162726 69 99 2.0 2.0 0.00 0.68 0.68 93 1019.2
20260902162221 69 152 3.0 3.0 0.00 0.68 0.68 93 1019.3
20260902161716 69 114 3.0 5.0 0.00 0.68 0.68 96 1019.0
20260902161211 69 139 4.0 6.0 0.00 0.68 0.68 97 1018.9
20260902160708 69 142 5.0 7.0 0.07 0.68 0.68 97 1018.6
20260902160203 68 119 0.0 1.0 0.12 0.68 0.68 98 1018.7
20260902155701 68 96 4.0 5.0 0.12 0.68 0.68 97 1018.6
20260902155159 68 68 1.0 2.0 0.19 0.66 0.66 97 1019.0
20260902154655 68 95 3.0 3.0 0.35 0.66 0.66 97 1019.1
20260902154154 68 89 3.0 5.0 0.54 0.64 0.64 97 1019.1
20260902153649 68 46 5.0 6.0 0.47 0.59 0.59 97 1019.1
20260902153143 68 354 2.0 2.0 0.42 0.55 0.55 97 1019.1
20260902152640 68 344 3.0 5.0 0.42 0.51 0.51 96 1018.9
20260902152135 68 291 1.0 2.0 0.50 0.47 0.47 96 1019.1
20260902151630 68 228 5.0 6.0 0.71 0.44 0.44 96 1018.7
20260902151125 68 293 0.0 1.0 0.64 0.41 0.41 96 1018.4
20260902150621 68 226 6.0 7.0 0.38 0.32 0.32 97 1018.2
20260902150115 68 160 3.0 3.0 1.09 0.30 0.30 96 1018.0
20260902145610 68 115 5.0 6.0 1.25 0.27 0.27 96 1017.8
20260902145109 68 293 7.0 8.0 0.73 0.16 0.16 95 1018.7
20260902144606 68 190 8.0 9.0 0.19 0.06 0.06 95 1018.8
20260902144106 69 158 9.0 11.0 0.12 0.04 0.04 95 1018.1
20260902143601 69 165 7.0 8.0 0.12 0.03 0.03 95 1018.3
20260902143057 69 133 7.0 8.0 0.12 0.02 0.02 95 1018.1
20260902142552 69 158 7.0 9.0 0.07 0.01 0.01 94 1018.1
20260902142048 69 93 5.0 6.0 0.00 0.00 0.00 94 1018.1
20260902141542 69 117 2.0 2.0 0.00 0.00 0.00 94 1018.3
20260902141037 70 142 5.0 6.0 0.00 0.00 0.00 94 1018.4
20260902140532 70 194 5.0 6.0 0.00 0.00 0.00 93 1018.5
20260902140027 70 157 5.0 7.0 0.00 0.00 0.00 93 1018.7
20260902135521 70 191 4.0 5.0 0.00 0.00 0.00 93 1018.8
20260902135016 70 243 0.0 1.0 0.00 0.00 0.00 93 1018.9
20260902134512 70 171 4.0 5.0 0.00 0.00 0.00 94 1018.9
20260902134012 70 177 5.0 6.0 0.00 0.00 0.00 94 1018.7
20260902133507 70 155 6.0 7.0 0.00 0.00 0.00 94 1018.5
20260902133006 70 158 8.0 9.0 0.00 0.00 0.00 94 1018.1
20260902132502 71 195 7.0 8.0 0.00 0.00 0.00 94 1017.9
20260902131956 71 167 9.0 10.0 0.00 0.00 0.00 95 1017.8
20260902131453 71 89 6.0 8.0 0.00 0.00 0.00 95 1018.2
20260902130952 71 166 5.0 7.0 0.00 0.00 0.00 96 1018.3
20260902130448 71 166 6.0 7.0 0.00 0.00 0.00 96 1018.2
20260902125943 71 125 7.0 8.0 0.00 0.00 0.00 97 1018.2
20260902125440 71 126 7.0 8.0 0.00 0.00 0.00 98 1018.1
20260902124935 71 125 8.0 8.0 0.00 0.00 0.00 98 1018.2
20260902124431 71 162 5.0 7.0 0.00 0.00 0.00 99 1018.1
20260902123926 71 87 4.0 5.0 0.00 0.00 0.00 99 1017.9
20260902123422 71 208 2.0 3.0 0.00 0.00 0.00 99 1018.0
20260902122920 71 134 6.0 7.0 0.00 0.00 0.00 99 1018.0
20260902122417 71 152 2.0 2.0 0.00 0.00 0.00 99 1018.0
20260902121912 71 140 2.0 3.0 0.00 0.00 0.00 99 1017.5
20260902121407 71 141 1.0 1.0 0.00 0.00 0.00 99 1017.6
20260902120902 71 135 4.0 5.0 0.00 0.00 0.00 99 1017.6
20260902120358 71 97 3.0 3.0 0.00 0.00 0.00 99 1017.4
20260902115857 71 111 3.0 3.0 0.00 0.00 0.00 99 1017.4
20260902115354 70 117 3.0 3.0 0.00 0.00 0.00 99 1017.7
20260902114850 70 84 1.0 2.0 0.00 0.00 0.00 99 1017.6
20260902114346 70 110 3.0 3.0 0.00 0.00 0.00 99 1017.7
20260902113840 70 119 3.0 3.0 0.00 0.00 0.00 99 1017.5
20260902113336 70 125 2.0 2.0 0.00 0.00 0.00 99 1017.6
20260902112835 70 161 5.0 7.0 0.00 0.00 0.00 99 1017.3
20260902112332 70 205 1.0 1.0 0.00 0.00 0.00 99 1017.4
20260902111827 70 102 2.0 2.0 0.00 0.00 0.00 99 1017.4
20260902111324 70 308 1.0 1.0 0.00 0.00 0.00 99 1017.5
20260902110819 69 25 2.0 2.0 0.00 0.00 0.00 99 1017.3
20260902110315 69 171 2.0 2.0 0.00 0.00 0.00 99 1017.5
20260902105814 69 70 0.0 1.0 0.00 0.00 0.00 99 1017.3
20260902105310 69 215 1.0 1.0 0.00 0.00 0.00 99 1017.3
20260902104805 69 304 0.0 1.0 0.00 0.00 0.00 99 1017.3
20260902104301 69 252 0.0 0.0 0.00 0.00 0.00 99 1017.5
20260902103801 69 232 1.0 1.0 0.00 0.00 0.00 99 1017.5
20260902103301 69 288 0.0 0.0 0.00 0.00 0.00 99 1017.6
20260902102756 69 294 1.0 1.0 0.00 0.00 0.00 99 1017.7
20260902102253 69 286 1.0 1.0 0.00 0.00 0.00 99 1017.7
20260902101749 69 241 1.0 1.0 0.00 0.00 0.00 99 1017.6
20260902101243 69 260 0.0 0.0 0.00 0.00 0.00 99 1017.4
20260902100743 69 348 1.0 1.0 0.00 0.00 0.00 99 1017.4
20260902100237 69 47 2.0 2.0 0.00 0.00 0.00 99 1017.7
20260902095732 69 209 1.0 1.0 0.00 0.00 0.00 99 1017.6
20260902095226 69 74 2.0 2.0 0.00 0.00 0.00 99 1017.5
20260902094721 69 58 2.0 2.0 0.00 0.00 0.00 99 1017.5
20260902094217 69 359 1.0 1.0 0.00 0.00 0.00 99 1017.5
20260902093716 69 300 0.0 0.0 0.00 0.00 0.00 99 1017.6
20260902093212 69 278 0.0 0.0 0.00 0.00 0.00 99 1017.5
20260902092712 69 276 0.0 0.0 0.00 0.00 0.00 99 1017.9
20260902092207 69 278 0.0 1.0 0.00 0.00 0.00 99 1017.4
20260902091701 69 337 2.0 2.0 0.00 0.00 0.00 99 1017.6
20260902091158 69 216 1.0 1.0 0.00 0.00 0.00 99 1017.6
20260902090654 69 327 0.0 1.0 0.00 0.00 0.00 99 1017.6
20260902090152 69 240 0.0 1.0 0.00 0.00 0.00 99 1017.6
20260902085647 69 282 0.0 0.0 0.00 0.00 0.00 99 1017.7
20260902085142 69 273 0.0 0.0 0.00 0.00 0.00 99 1017.6
20260902084638 69 288 0.0 0.0 0.00 0.00 0.00 99 1017.4
20260902084134 69 252 0.0 0.0 0.00 0.00 0.00 99 1017.5
20260902083629 69 253 0.0 0.0 0.00 0.00 0.00 99 1017.5
20260902083128 69 251 0.0 0.0 0.00 0.00 0.00 99 1017.6
20260902082624 69 326 1.0 1.0 0.00 0.00 0.00 99 1017.4
20260902082120 69 279 0.0 0.0 0.00 0.00 0.00 99 1017.4
20260902081617 69 255 0.0 0.0 0.00 0.00 0.00 99 1017.3
20260902081116 68 242 0.0 0.0 0.00 0.00 0.00 99 1017.4
20260902080612 68 278 0.0 0.0 0.00 0.00 0.00 99 1017.2
20260902080108 68 294 0.0 0.0 0.00 0.00 0.00 99 1017.1
20260902075607 68 9 1.0 1.0 0.00 0.00 0.00 99 1017.3
20260902075104 68 221 1.0 1.0 0.00 0.00 0.00 99 1017.2
20260902074559 68 200 1.0 1.0 0.00 0.00 0.00 99 1017.4
20260902074054 68 213 1.0 1.0 0.00 0.00 0.00 99 1017.5
20260902073549 68 244 0.0 0.0 0.00 0.00 0.00 99 1017.2
20260902073046 68 281 0.0 1.0 0.00 0.00 0.00 99 1017.6
20260902072541 68 351 1.0 1.0 0.00 0.00 0.00 99 1017.3
20260902072038 68 45 2.0 2.0 0.00 0.00 0.00 99 1017.3
20260902071537 68 52 2.0 2.0 0.00 0.00 0.00 99 1017.3
20260902071033 68 74 2.0 2.0 0.00 0.00 0.00 99 1017.4
20260902070529 68 70 2.0 2.0 0.00 0.00 0.00 99 1017.3
20260902070023 68 72 2.0 2.0 0.00 0.00 0.00 99 1017.5
20260902065517 68 45 1.0 2.0 0.00 0.00 0.00 99 1017.8
20260902065013 68 46 2.0 3.0 0.00 0.00 0.00 99 1017.6
20260902064509 69 33 3.0 3.0 0.00 0.00 0.00 99 1017.4
20260902064004 69 41 1.0 2.0 0.00 0.00 0.00 99 1017.6
20260902063503 69 44 0.0 1.0 0.00 0.00 0.00 99 1017.5
20260902062958 69 43 1.0 1.0 0.00 0.00 0.00 99 1017.5
20260902062451 69 61 1.0 1.0 0.00 0.00 0.00 99 1017.5
20260902061947 69 90 3.0 3.0 0.00 0.00 0.00 99 1017.4
20260902061442 69 78 1.0 1.0 0.00 0.00 0.00 99 1017.6
20260902060938 69 53 0.0 0.0 0.00 0.00 0.00 99 1017.6
20260902060434 69 35 2.0 2.0 0.00 0.00 0.00 99 1017.5
20260902055930 69 37 1.0 1.0 0.00 0.00 0.00 99 1017.6
20260902055426 69 21 1.0 1.0 0.00 0.00 0.00 99 1017.5
20260902054921 69 336 0.0 1.0 0.00 0.00 0.00 99 1017.6
20260902054416 69 49 1.0 1.0 0.00 0.00 0.00 99 1017.5
20260902053911 69 33 2.0 2.0 0.00 0.00 0.00 99 1017.5
20260902053407 69 322 0.0 1.0 0.00 0.00 0.00 99 1017.4
20260902052905 69 12 1.0 2.0 0.00 0.00 0.00 99 1017.5
20260902052401 69 313 0.0 0.0 0.00 0.00 0.00 99 1017.3
20260902051855 69 308 1.0 1.0 0.00 0.00 0.00 99 1017.5
20260902051350 69 279 0.0 0.0 0.00 0.00 0.00 99 1017.5
20260902050850 69 342 0.0 1.0 0.00 0.00 0.00 99 1017.4
20260902050349 69 247 0.0 0.0 0.00 0.00 0.00 99 1017.2
20260902045844 69 249 0.0 0.0 0.00 0.00 0.00 99 1017.2
20260902045340 69 237 1.0 1.0 0.00 0.00 0.00 99 1017.1
20260902044836 69 344 0.0 1.0 0.00 0.00 0.00 99 1017.3
20260902044332 69 213 1.0 1.0 0.00 0.00 0.00 99 1017.5